Regional Weather Roundup
Issued by NWS Tiyan, Guam

Home | Current Version | Previous Version | Text Only | Print | Product List | Glossary On
Versions: 1 2 3 4 5 6 7 8 9 10 11 12 13 14 15 16 17 18 19 20 21 22 23 24 25 26 27
000
ASGM40 PGUM 222312
RWRGUM
WEATHER ROUNDUP FOR THE MARIANAS
NATIONAL WEATHER SERVICE TIYAN GU
900 AM CHST MON OCT 23 2017

GUZ001>004-230000-
MARIANA ISLANDS-

CITY           SKY/WX    TMP DP  RH WIND       PRES   REMARKS
GUAM AIRPORT   MOSUNNY   86  81  84 NE10      29.80S HX 102
ANDERSEN AFB   MOSUNNY   84  79  84 NE10      29.81S HX  96
ROTA AIRPORT   PTSUNNY   82  79  89 NE9       29.80R HX  93
TINIAN AP      MOSUNNY   82  79  89 E8        29.78R HX  93
SAIPAN AP      MOSUNNY   84  82  94 E9        29.79S HX 101

$$





USA.gov is the U.S. government's official web portal to all federal, state and local government web resources and services.